Showing default

QIANFAN-188, 69406

Orbit data source: Space-Track

QIANFAN-188, 69406 is a Chinese payload satellite in LEO that was launched on Fri, 05 Jun 2026 UTC via a CHANG ZHENG 8 launch vehicle from the Wenchang Satellite Launch Center (WSC). Payload-class satellites include a variety of spacecraft equipped with specific instruments for various scientific and technological missions. These include communications satellites like Starlink; space stations such as the ISS; scientific satellites like the Hubble; Earth observation satellites from companies like Planet Labs, Umbra, and HawkEye 360; GPS; miniature CubeSats for education and research; and military/defense satellites.

Loading next visibility...
Identifier
69406, 2026-125F
Orbit
LEO
Country
Flag of CNCN / PRC
Related business
Manufacturer
SECM?
Mission
Operational spacecraft
Bus & Motor
QIANFAN, Unknown motor
Mass
267 kg wet, ~267 kg dry
Launch date (UTC)
2026-06-05 (2 weeks ago)
Launch vehicle
CHANG ZHENG 8
Launch site
Wenchang Satellite Launch Center (WSC)
Object type
Payload
Rocket body
Debris
Shape & HBR
Unknown
Radar Cross Section
Large (>1 m²)

Expand to show TLE details & history
Last TLE update: 1 day ago

TLE from 1 day ago
0 QIANFAN-188
1 69406U 26125F   26170.79316292 -.02077050  00000-0 -11264+1 0  9993
2 69406  88.9989 280.1491 0017376 182.4114 177.6993 14.16598732  2075
Epoch: 2026-06-19T19:02Z
TLE epoch observation values (Epoch: 2026-06-19T19:02:09.276Z)
Latitude
-0.00005°
Longitude
86.59341°
Altitude
852.456 km
Speed
7.42 km/s
True Right ascension
18h 40m 35s
True Declination
0° 00' 00"
Sunlit
Object was in full shadow at epoch
Visualization orbit readout
Latitude
Unknown
Longitude
Unknown
Altitude
Unknown
Speed
Unknown
Apparent Right ascension
Unknown
Apparent Declination
Unknown
Sunlit
N/A
Visualization observer readout
Local Sidereal Time
07:15:56
Azimuth
Unknown
Elevation
Unknown
Doppler factor
Unknown
Orbital elements
Apogee altitude
846.366 km
Perigee altitude
821.303 km
Semi-major axis
7,211.972 km
Eccentricity
0.00174
Inclination
88.9989°
RAAN
280.1491°
Arg. of periapsis
182.4114°
True anomaly
177.70728°
Mean anomaly
177.6993°
Eccentric anomaly
177.70329°
Mean motion
3.54374 °/min
Orbital period
101.59 mins
BSTAR
-1.1264
Loading maneuver chart data...
Computing Atmospheric mass density...
Loading historical data...
Loading historical data...
Loading historical data...
Loading historical data...
Loading historical data...
Loading historical data...
Loading historical data...

Documentation

Showing up to 5 results
|